DK8PN Weather Reports


time (UTC)temp
C
wind
direction
speed
KPH
gust
KPH
rain 1hr
cm
rain 24hr
cm
rain mn
cm
humidity
%
barometer
mb
20260901010028 13 243 0.0 0.0 0.00 0.23 0.00 91 1018.7
20260901004526 13 243 0.0 0.0 0.00 0.51 0.00 91 1018.6
20260901003026 13 243 0.0 0.0 0.00 0.51 0.00 91 1018.4
20260901001527 13 243 0.0 0.0 0.00 0.51 0.00 91 1018.4
20260901000022 13 243 0.0 0.0 0.00 0.51 0.00 91 1018.4
20260831234521 13 243 0.0 0.0 0.00 0.51 0.00 91 1018.2
20260831233034 13 243 0.0 0.0 0.00 0.51 0.00 91 1018.1
20260831231519 13 243 0.0 0.0 0.00 0.51 0.00 91 1018.1
20260831230019 13 243 0.0 0.0 0.00 0.51 0.00 90 1018.1
20260831224517 13 243 0.0 0.0 0.00 0.51 0.00 91 1018.1
20260831223017 13 243 0.0 0.0 0.00 0.51 0.00 90 1018.2
20260831221513 14 243 0.0 0.0 0.00 0.51 0.00 90 1018.1
20260831220016 14 243 0.0 0.0 0.00 0.51 0.00 90 1018.0
20260831214516 14 243 0.0 0.0 0.00 0.51 0.51 90 1017.8
20260831213009 14 243 0.0 0.0 0.00 0.51 0.51 90 1017.8
20260831211508 14 243 0.0 0.0 0.00 0.51 0.51 89 1017.6
20260831210004 15 243 0.0 0.0 0.00 0.51 0.51 88 1017.4
20260831204505 15 243 0.0 0.0 0.00 0.51 0.51 88 1017.3
20260831203059 15 243 0.0 0.0 0.00 0.51 0.51 86 1017.2
20260831201600 16 244 0.0 0.0 0.00 0.51 0.51 83 1016.9
20260831200057 17 243 0.0 8.0 0.00 0.51 0.51 79 1016.9
20260831194631 17 235 0.0 14.5 0.00 0.51 0.51 79 1017.0
20260831193056 17 248 0.0 14.5 0.00 0.51 0.51 80 1017.0
20260831191554 16 232 0.0 6.4 0.00 0.51 0.51 86 1016.8
20260831184611 16 260 0.0 0.0 0.00 0.51 0.51 86 1016.5
20260831183100 16 260 0.0 0.0 0.03 0.51 0.51 84 1016.3
20260831181549 17 260 0.0 0.0 0.03 0.51 0.51 82 1016.1
20260831180047 17 260 0.0 12.9 0.03 0.51 0.51 81 1015.8
20260831174550 17 223 0.0 11.3 0.03 0.51 0.51 84 1015.8
20260831173057 17 268 0.0 0.0 0.00 0.51 0.51 85 1016.0
20260831171543 17 268 0.0 0.0 0.03 0.51 0.51 84 1015.5
20260831170042 17 268 0.0 0.0 0.10 0.51 0.51 82 1015.4
20260831164543 17 268 0.0 19.3 0.10 0.51 0.51 82 1015.4
20260831163050 17 277 9.7 20.9 0.10 0.51 0.51 81 1015.5
20260831161540 18 290 11.3 49.9 0.08 0.48 0.48 76 1015.5
20260831160034 22 328 9.7 25.7 0.00 0.41 0.41 57 1014.7
20260831154535 22 236 12.9 27.4 0.00 0.41 0.41 54 1014.4
20260831153033 22 284 4.8 20.9 0.00 0.41 0.41 60 1014.2
20260831151533 22 252 0.0 14.5 0.00 0.41 0.41 56 1014.3
20260831150032 22 278 1.6 19.3 0.00 0.41 0.41 55 1014.3
20260831144546 23 254 3.2 35.4 0.00 0.41 0.41 54 1014.0
20260831143039 22 279 16.1 30.6 0.00 0.41 0.41 55 1014.1
20260831141530 23 284 8.0 38.6 0.00 0.41 0.41 51 1013.9
20260831140029 23 284 9.7 22.5 0.00 0.41 0.41 52 1013.8
20260831134530 23 258 1.6 19.3 0.00 0.41 0.41 52 1014.1
20260831133030 23 298 9.7 20.9 0.00 0.41 0.41 52 1014.1
20260831131528 22 291 11.3 24.1 0.00 0.41 0.41 57 1014.3
20260831130027 23 302 8.0 30.6 0.00 0.41 0.41 55 1014.3
20260831124516 23 232 9.7 38.6 0.00 0.41 0.41 49 1014.4
20260831123015 23 263 12.9 32.2 0.00 0.41 0.41 50 1014.4
20260831121519 22 243 4.8 24.1 0.00 0.41 0.41 54 1014.5
20260831120018 23 252 11.3 35.4 0.00 0.41 0.41 54 1014.5
20260831114509 23 236 8.0 25.7 0.00 0.41 0.41 55 1014.6
20260831113008 21 240 3.2 30.6 0.00 0.41 0.41 59 1014.7
20260831111505 22 257 9.7 32.2 0.00 0.41 0.41 56 1014.7
20260831110004 22 243 6.4 40.2 0.00 0.41 0.41 56 1014.6
20260831104506 22 239 4.8 20.9 0.00 0.41 0.41 55 1014.6
20260831103104 22 250 8.0 32.2 0.00 0.41 0.41 57 1014.6
20260831101559 21 249 8.0 25.7 0.00 0.41 0.41 58 1014.6
20260831100103 21 244 8.0 38.6 0.00 0.41 0.41 59 1014.7
20260831094558 21 228 12.9 32.2 0.00 0.41 0.41 58 1014.7
20260831093054 21 253 11.3 32.2 0.00 0.41 0.41 60 1014.7
20260831091649 20 234 16.1 43.5 0.00 0.41 0.41 63 1014.7
20260831090046 21 240 8.0 29.0 0.00 0.41 0.41 64 1014.5
20260831084550 20 242 11.3 25.7 0.00 0.41 0.41 69 1014.6
20260831083047 20 258 4.8 19.3 0.00 0.41 0.41 72 1014.4
20260831081544 20 284 8.0 29.0 0.00 0.41 0.41 75 1014.3
20260831080034 20 286 6.4 19.3 0.00 0.41 0.41 77 1014.2
20260831074540 19 280 3.2 20.9 0.00 0.41 0.41 81 1014.2
20260831073058 19 255 6.4 17.7 0.00 0.41 0.41 82 1014.2
20260831071526 18 261 0.0 11.3 0.00 0.41 0.41 86 1014.1
20260831070031 18 264 4.8 12.9 0.00 0.41 0.41 87 1014.1
20260831064531 17 249 0.0 0.0 0.00 0.41 0.41 89 1014.0
20260831063021 17 254 0.0 1.6 0.00 0.41 0.41 90 1013.9
20260831061520 17 254 0.0 0.0 0.00 0.41 0.41 91 1013.6
20260831060013 17 254 0.0 0.0 0.00 0.41 0.41 92 1013.5
20260831054510 17 254 0.0 0.0 0.00 0.41 0.41 92 1013.5
20260831053017 17 254 0.0 0.0 0.00 0.41 0.41 92 1013.3
20260831051513 17 254 0.0 3.2 0.00 0.41 0.41 92 1013.3
20260831050014 17 254 0.0 0.0 0.08 0.41 0.41 91 1013.3
20260831044502 17 254 0.0 0.0 0.08 0.41 0.41 91 1013.2
20260831043100 17 254 0.0 16.1 0.08 0.41 0.41 91 1013.0
20260831041604 17 256 0.0 6.4 0.08 0.41 0.41 90 1012.9
20260831040057 17 256 0.0 0.0 0.00 0.33 0.33 90 1012.6
20260831034556 17 256 0.0 0.0 0.00 0.33 0.33 90 1012.6
20260831033056 17 256 1.6 17.7 0.00 0.33 0.33 89 1012.6
20260831031556 17 239 0.0 0.0 0.00 0.33 0.33 89 1012.5
20260831030058 17 221 0.0 16.1 0.00 0.33 0.33 89 1012.4
20260831024555 17 240 4.8 24.1 0.00 0.33 0.33 89 1012.4
20260831023051 17 213 0.0 4.8 0.03 0.33 0.33 89 1011.9
20260831021550 17 213 0.0 19.3 0.03 0.33 0.33 89 1011.6
20260831020050 17 212 1.6 9.7 0.03 0.33 0.33 89 1011.7
20260831014551 17 177 1.6 16.1 0.05 0.33 0.33 89 1011.8
20260831013042 17 189 3.2 19.3 0.15 0.30 0.30 89 1012.0
20260831011541 17 165 0.0 9.7 0.30 0.30 0.30 89 1012.0